Weather History for Cocoa Beach, FL

Change the Weather History Date:

Tuesday, July 30, 2013

  Actual Average (KCOF) Record (KCOF)
Temperature  
Mean Temperature 79 °F -  
Max Temperature 88 °F 85 °F 97 °F (2010)
Min Temperature 71 °F 74 °F 73 °F (2000)
Cooling Degree Days 14    
Growing Degree Days 29 (Base 50)    
Moisture  
Dew Point 74 °F    
Average Humidity 91    
Maximum Humidity 100    
Minimum Humidity 68    
Precipitation  
Precipitation 0.00 in - - ()
Sea Level Pressure  
Sea Level Pressure 30.15 in    
Wind  
Wind Speed 2 mph (East)    
Max Wind Speed 10 mph    
Max Gust Speed -    
Visibility 6 miles    
Events Fog    
Averages and records for this station are not official NWS values.
T = Trace of Precipitation, MM = Missing Value Source: NWS Daily Summary

Daily Weather History Graph

Daily Weather History Graph

Search for Another Location

Airport:

Trip Planner

Search our weather history database for the weather conditions in past years. The results will help you decide how hot, cold, wet, or windy it might be!

Date:

Astronomy

Jul. 30, 2013 Rise Set
Actual Time 6:43 AM EDT 8:13 PM EDT
Civil Twilight 6:17 AM EDT 8:39 PM EDT
Nautical Twilight 5:46 AM EDT 9:10 PM EDT
Astronomical Twilight 5:14 AM EDT 9:41 PM EDT
Moon 12:55 AM EDT (7/30) 2:34 PM EDT (7/30)
Length of Visible Light 14h 22m
Length of Day
13h 30m
Last Quarter, 41% of the Moon is Illuminated
Jul 30
Last Quarter
Aug 6
New
Aug 14
First Quarter
Aug 20
Full
Aug 28
Last Quarter

Hourly Weather History & Observations

Time (EDT) Temp. Heat Index Dew Point Humidity Pressure Visibility Wind Dir Wind Speed Gust Speed Precip Events Conditions
12:58 AM 76.3 °F - 75.9 °F 99% 30.17 in 10.0 mi ESE 1.2 mph - N/A   Clear
1:58 AM 75.0 °F - 74.5 °F 98% 30.16 in 10.0 mi SE 3.5 mph - N/A   Clear
2:43 AM 75.2 °F - 75.2 °F 100% 30.15 in 7.0 mi Calm Calm - N/A   Clear
2:58 AM 74.3 °F - 73.6 °F 98% 30.15 in 10.0 mi Calm Calm - N/A   Clear
3:03 AM 73.4 °F - 73.4 °F 100% 30.14 in 8.0 mi Calm Calm - N/A   Clear
3:18 AM 75.2 °F - 73.4 °F 94% 30.14 in 1.8 mi Calm Calm - N/A   Clear
3:23 AM 75.2 °F - 75.2 °F 100% 30.14 in 0.8 mi Calm Calm - N/A   Clear
3:38 AM 75.2 °F - 73.4 °F 94% 30.13 in 1.0 mi SE 2.3 mph - N/A   Clear
3:43 AM 73.4 °F - 73.4 °F 100% 30.13 in 3.0 mi ESE 1.2 mph - N/A   Clear
3:48 AM 73.4 °F - 71.6 °F 94% 30.13 in 0.8 mi ESE 1.2 mph - N/A   Clear
3:53 AM 73.4 °F - 71.6 °F 94% 30.12 in 0.8 mi Calm Calm - N/A   Clear
3:58 AM 72.7 °F - 72.1 °F 98% 30.13 in 0.8 mi ESE 1.2 mph - N/A   Clear
4:18 AM 73.4 °F - 73.4 °F 100% 30.12 in 1.2 mi Calm Calm - N/A   Clear
4:23 AM 73.4 °F - 71.6 °F 94% 30.12 in 8.0 mi Calm Calm - N/A   Clear
4:28 AM 73.4 °F - 73.4 °F 100% 30.12 in 1.2 mi Calm Calm - N/A   Clear
4:33 AM 73.4 °F - 73.4 °F 100% 30.12 in 0.5 mi Calm Calm - N/A Fog Fog
4:43 AM 73.4 °F - 73.4 °F 100% 30.13 in 1.8 mi NNW 3.5 mph - N/A   Clear
4:48 AM 73.4 °F - 73.4 °F 100% 30.13 in 10.0 mi NNW 3.5 mph - N/A   Clear
4:58 AM 73.8 °F - 73.2 °F 98% 30.13 in 10.0 mi NNW 3.5 mph - N/A   Clear
5:28 AM 73.4 °F - 73.4 °F 100% 30.13 in 6.0 mi Calm Calm - N/A   Clear
5:33 AM 73.4 °F - 73.4 °F 100% 30.13 in 4.0 mi Calm Calm - N/A   Clear
5:38 AM 73.4 °F - 73.4 °F 100% 30.13 in 1.5 mi Calm Calm - N/A   Clear
5:48 AM 71.6 °F - 71.6 °F 100% 30.13 in 4.0 mi Calm Calm - N/A   Clear
5:53 AM 73.4 °F - 73.4 °F 100% 30.13 in 1.0 mi Calm Calm - N/A   Clear
5:58 AM 74.5 °F - 73.9 °F 98% 30.14 in 0.8 mi Calm Calm - N/A   Clear
6:03 AM 73.4 °F - 73.4 °F 100% 30.13 in 1.8 mi Calm Calm - N/A   Clear
6:18 AM 73.4 °F - 73.4 °F 100% 30.14 in 1.0 mi Calm Calm - N/A   Clear
6:23 AM 73.4 °F - 71.6 °F 94% 30.13 in 0.5 mi Calm Calm - N/A Fog Fog
6:33 AM 71.6 °F - 71.6 °F 100% 30.14 in 0.8 mi North 2.3 mph - N/A   Clear
6:38 AM 71.6 °F - 71.6 °F 100% 30.15 in 1.0 mi North 2.3 mph - N/A   Clear
6:48 AM 73.4 °F - 73.4 °F 100% 30.15 in 2.0 mi NE 2.3 mph - N/A   Clear
6:53 AM 73.4 °F - 71.6 °F 94% 30.15 in 5.0 mi NE 2.3 mph - N/A   Clear
6:58 AM 72.5 °F - 72.0 °F 98% 30.16 in 6.0 mi ENE 2.3 mph - N/A   Clear
7:08 AM 73.4 °F - 73.4 °F 100% 30.16 in 2.5 mi East 1.2 mph - N/A   Clear
7:13 AM 73.4 °F - 71.6 °F 94% 30.16 in 4.0 mi East 2.3 mph - N/A   Clear
7:58 AM 76.8 °F - 75.7 °F 96% 30.17 in 10.0 mi Calm Calm - N/A   Clear
8:58 AM 82.8 °F 91.6 °F 77.2 °F 83% 30.18 in 10.0 mi Variable 1.2 mph - N/A   Clear
9:58 AM 84.2 °F 92.6 °F 75.4 °F 75% 30.18 in 10.0 mi Calm Calm - N/A   Clear
10:58 AM 85.5 °F 95.4 °F 76.3 °F 74% 30.20 in 10.0 mi NNW 5.8 mph - N/A   Scattered Clouds
11:10 AM 86.0 °F 96.9 °F 77.0 °F 74% 30.19 in 10.0 mi West 8.1 mph - N/A   Light Drizzle
11:21 AM 86.0 °F 95.1 °F 75.2 °F 70% 30.19 in 10.0 mi Variable 5.8 mph - N/A   Partly Cloudy
11:36 AM 84.2 °F 92.3 °F 75.2 °F 74% 30.19 in 10.0 mi Variable 4.6 mph - N/A   Mostly Cloudy
11:41 AM 84.2 °F 92.3 °F 75.2 °F 74% 30.18 in 10.0 mi Variable 2.3 mph - N/A   Scattered Clouds
11:58 AM 86.9 °F 96.4 °F 75.4 °F 68% 30.19 in 10.0 mi Variable 2.3 mph - 0.00 in   Partly Cloudy
12:58 PM 87.3 °F 98.2 °F 76.3 °F 70% 30.19 in 10.0 mi East 9.2 mph - N/A   Clear
1:58 PM 87.3 °F 99.3 °F 77.2 °F 72% 30.18 in 10.0 mi East 10.4 mph - N/A   Partly Cloudy
2:58 PM 87.6 °F 100.3 °F 77.7 °F 72% 30.16 in 10.0 mi Variable 5.8 mph - N/A   Clear
3:58 PM 86.2 °F 97.8 °F 77.5 °F 75% 30.14 in 10.0 mi East 8.1 mph - N/A   Clear
4:58 PM 85.5 °F 95.9 °F 76.8 °F 75% 30.13 in 10.0 mi East 8.1 mph - N/A   Clear
5:58 PM 85.1 °F 95.4 °F 76.6 °F 76% 30.12 in 10.0 mi ESE 9.2 mph - N/A   Clear
6:58 PM 84.4 °F 94.6 °F 77.4 °F 79% 30.13 in 10.0 mi SSE 10.4 mph - N/A   Clear
7:58 PM 82.4 °F 91.2 °F 77.4 °F 85% 30.13 in 10.0 mi SSE 5.8 mph - N/A   Clear
8:58 PM 79.3 °F - 76.8 °F 92% 30.14 in 10.0 mi ESE 3.5 mph - N/A   Clear
9:58 PM 78.3 °F - 76.5 °F 94% 30.15 in 10.0 mi ESE 4.6 mph - N/A   Clear
10:58 PM 78.3 °F - 76.8 °F 95% 30.16 in 10.0 mi SE 4.6 mph - N/A   Clear
11:58 PM 76.8 °F - 75.6 °F 96% 30.16 in 10.0 mi WNW 2.3 mph - N/A   Clear